DG6YGE-6 Weather Reports


Display with metric or nautical units.
time (UTC)temp
F
wind
direction
speed
MPH
gust
MPH
rain 1hr
in
rain 24hr
in
rain mn
in
humidity
%
barometer
mb
20260506144910 48 182 3.0 9.0 0.03 1.01 1.01 94 1006.3
20260506143910 48 178 3.0 7.0 0.04 1.01 1.01 94 1006.3
20260506142910 48 153 5.0 10.0 0.05 1.01 1.01 94 1006.2
20260506141910 48 306 3.0 9.0 0.04 1.00 1.00 94 1006.2
20260506140910 48 211 4.0 8.0 0.04 1.00 1.00 94 1006.3
20260506135910 48 291 3.0 7.0 0.04 0.99 0.99 94 1006.3
20260506134910 48 183 2.0 6.0 0.03 0.98 0.98 94 1006.4
20260506133910 48 248 2.0 5.0 0.03 0.97 0.97 94 1006.3
20260506132910 48 141 3.0 7.0 0.02 0.96 0.96 94 1006.3
20260506131910 48 177 4.0 8.0 0.03 0.96 0.96 94 1005.9
20260506130909 48 198 3.0 6.0 0.03 0.96 0.96 94 1005.8
20260506125910 48 244 3.0 7.0 0.02 0.95 0.95 94 1005.8
20260506124910 48 202 2.0 5.0 0.03 0.95 0.95 94 1005.9
20260506123909 48 173 3.0 5.0 0.03 0.94 0.94 95 1005.7
20260506122909 47 165 3.0 7.0 0.04 0.94 0.94 94 1005.8
20260506121910 47 227 2.0 6.0 0.03 0.94 0.94 94 1005.7
20260506120910 47 202 3.0 7.0 0.04 0.94 0.94 94 1005.6
20260506115910 47 180 2.0 7.0 0.05 0.94 0.94 94 1005.6
20260506114909 47 119 2.0 6.0 0.04 0.93 0.93 94 1005.5
20260506113917 47 94 2.0 5.0 0.04 0.92 0.92 94 1005.6
20260506112909 46 332 3.0 6.0 0.03 0.91 0.91 94 1005.6
20260506111909 46 192 3.0 5.0 0.03 0.91 0.91 94 1005.7
20260506110914 46 82 3.0 9.0 0.03 0.90 0.90 94 1005.6
20260506105914 46 99 4.0 9.0 0.02 0.89 0.89 94 1005.5
20260506104914 46 129 3.0 8.0 0.03 0.89 0.89 94 1005.6
20260506103914 46 204 3.0 8.0 0.02 0.88 0.88 94 1005.4
20260506102914 46 15 3.0 10.0 0.02 0.88 0.88 94 1005.5
20260506101914 45 115 4.0 9.0 0.03 0.88 0.88 94 1005.5
20260506100914 45 195 3.0 10.0 0.03 0.87 0.87 94 1005.4
20260506095914 46 244 4.0 13.0 0.03 0.87 0.87 94 1005.3
20260506094914 46 209 5.0 11.0 0.03 0.86 0.86 94 1005.3
20260506093914 45 113 4.0 10.0 0.03 0.86 0.86 94 1005.2
20260506092914 45 217 4.0 8.0 0.04 0.86 0.86 94 1005.1
20260506091914 45 289 4.0 8.0 0.04 0.85 0.85 94 1005.1
20260506090914 45 151 4.0 10.0 0.03 0.84 0.84 94 1005.0
20260506085914 45 237 5.0 12.0 0.04 0.84 0.84 94 1004.9
20260506084914 45 296 5.0 10.0 0.04 0.83 0.83 94 1004.8
20260506083914 45 196 5.0 12.0 0.05 0.83 0.83 94 1004.6
20260506082914 45 150 4.0 11.0 0.05 0.82 0.82 94 1004.6
20260506081914 44 101 4.0 8.0 0.06 0.81 0.81 94 1004.5
20260506080914 44 187 4.0 8.0 0.08 0.81 0.81 94 1004.5
20260506072914 44 245 5.0 12.0 0.10 0.77 0.77 94 1004.3
20260506071914 44 227 5.0 10.0 0.10 0.76 0.76 93 1004.3
20260506070914 44 153 4.0 9.0 0.10 0.74 0.74 93 1004.4
20260506061914 45 257 4.0 8.0 0.09 0.65 0.65 93 1004.2
20260506060914 46 194 4.0 7.0 0.09 0.63 0.63 93 1004.1
20260505220912 51 226 4.0 10.0 0.00 0.03 0.00 94 1006.2
20260505215912 51 202 5.0 11.0 0.00 0.05 0.05 93 1006.2
20260505214912 51 241 4.0 10.0 0.00 0.05 0.05 93 1006.3
20260505213912 51 232 4.0 9.0 0.00 0.05 0.05 93 1006.5
20260505212912 51 93 4.0 7.0 0.00 0.05 0.05 93 1006.5
20260505211912 52 225 3.0 8.0 0.00 0.05 0.05 93 1006.5
20260505210912 52 206 4.0 8.0 0.00 0.05 0.05 93 1006.6
20260505205912 52 163 4.0 10.0 0.00 0.06 0.05 93 1006.5
20260505204912 52 299 3.0 6.0 0.00 0.06 0.05 93 1006.6
20260505203912 52 360 4.0 10.0 0.00 0.06 0.05 93 1006.7
20260505202912 52 360 4.0 8.0 0.00 0.06 0.05 93 1006.6
20260505201912 52 315 3.0 10.0 0.00 0.06 0.05 93 1006.6
20260505200912 52 149 3.0 9.0 0.00 0.06 0.05 93 1006.6
20260505195912 52 209 3.0 7.0 0.00 0.18 0.05 93 1006.5
20260505194912 52 189 3.0 10.0 0.00 0.18 0.05 93 1006.5
20260505193912 52 180 4.0 8.0 0.00 0.18 0.05 93 1006.5
20260505192912 52 227 3.0 5.0 0.00 0.18 0.05 93 1006.6
20260505191912 53 292 3.0 8.0 0.00 0.18 0.05 93 1006.4
20260505190912 53 294 3.0 10.0 0.00 0.18 0.05 93 1006.4
20260505185912 53 228 3.0 9.0 0.00 0.21 0.05 93 1006.4
20260505184912 53 189 3.0 10.0 0.00 0.21 0.05 93 1006.5
20260505183912 53 91 3.0 9.0 0.00 0.21 0.05 93 1006.6
20260505182912 53 271 4.0 9.0 0.00 0.21 0.05 93 1006.5
20260505181912 53 213 4.0 8.0 0.00 0.21 0.05 93 1006.5
20260505180912 53 251 3.0 7.0 0.00 0.21 0.05 92 1006.6
20260505175912 53 329 4.0 10.0 0.00 0.21 0.05 92 1006.6
20260505174912 53 186 2.0 5.0 0.00 0.21 0.05 92 1006.6
20260505173912 53 261 3.0 8.0 0.00 0.21 0.05 92 1006.8
20260505172912 53 155 2.0 8.0 0.00 0.21 0.05 92 1006.7
20260505171912 53 96 4.0 8.0 0.00 0.21 0.05 92 1006.7
20260505170912 53 285 3.0 8.0 0.00 0.21 0.05 92 1006.7
20260505165912 53 223 2.0 5.0 0.00 0.21 0.05 92 1006.8
20260505164912 53 223 2.0 4.0 0.00 0.21 0.05 91 1006.9
20260505163912 53 333 2.0 5.0 0.00 0.21 0.05 91 1007.1
20260505162912 53 85 2.0 5.0 0.00 0.21 0.05 91 1007.1
20260505161912 53 176 2.0 6.0 0.00 0.21 0.05 91 1007.2
20260505160912 53 336 3.0 9.0 0.00 0.21 0.05 91 1007.3
20260505152912 53 215 3.0 9.0 0.00 0.21 0.05 91 1007.4
20260505151912 53 177 2.0 5.0 0.00 0.21 0.05 91 1007.4
20260505150912 53 157 3.0 8.0 0.00 0.21 0.05 91 1007.5